703 
ASUS46 KSEW 250310
RWRWA 

WASHINGTON REGIONAL WEATHER ROUNDUP
NATIONAL WEATHER SERVICE SEATTLE WA
800 PM PDT FRI OCT 24 2014

NOTE:"FAIR" INDICATES FEW OR NO CLOUDS BELOW 12,000 FEET WITH NO 
SIGNIFICANT WEATHER AND/OR OBSTRUCTIONS TO VISIBILITY.

WAZ505-507>509-250400-
SEATTLE, TACOMA, EVERETT, AND VICINITY
  
CITY           SKY/WX    TMP DP  RH WIND       PRES   REMARKS
EVERETT        CLOUDY    52  46  80 N3        29.87F                  
BOEING FIELD   LGT RAIN  57  48  72 N3        29.86F                  
RENTON         LGT RAIN  55  51  86 CALM      29.85F                  
SEATAC AIRPORT LGT RAIN  54  47  77 E10       29.86F                  
JBLM-MCCHORD   LGT RAIN  52  51  99 NE2       29.83F                  
PUYALLUP       NOT AVBL                                               
JBLM-FT LEWIS  RAIN      52  51  98 N6        29.82F                  
TACOMA NARROWS LGT RAIN  52  47  83 N12       29.84F                  
$$
 
WAZ001-503-506-510-514-515-250400-
NORTH INTERIOR
  
CITY           SKY/WX    TMP DP  RH WIND       PRES   REMARKS
BELLINGHAM     CLOUDY    51  43  74 N7        29.87F                  
FRIDAY HARBOR  CLOUDY    51  46  83 N6        29.88F                  
EASTSOUND      LGT RAIN  50  48  93 N5        29.87F                  
PORT ANGELES   CLOUDY    48  46  93 CALM      29.88F                  
NAS WHIDBEY    CLOUDY    52  46  80 SE3       29.87F                  
BURLINGTON     CLEAR    N/A N/A N/A NW6       29.88F                  
$$
 
WAZ020-022-039-040-504-511-512-250400-
SOUTHWEST INTERIOR
  
CITY           SKY/WX    TMP DP  RH WIND       PRES   REMARKS
SHELTON        LGT RAIN  51  47  86 VRB5      29.81F                  
OLYMPIA        LGT RAIN  51  49  92 N7        29.83F                  
CHEHALIS       LGT RAIN  52  52 100 N5        29.81F                  
KELSO          CLOUDY    54  48  82 CALM      29.82F                  
VANCOUVER      CLOUDY    52  51  97 CALM      29.78F                  
SCAPPOOSE, OR  CLOUDY    52  51  97 NW5       29.78F                  
PORTLAND, OR   CLOUDY    53  51  93 CALM      29.78F                  
$$
 
WAZ021-516-517-250400-
WASHINGTON COAST
  
CITY           SKY/WX    TMP DP  RH WIND       PRES   REMARKS
FORKS          CLOUDY    50  46  86 NE6       29.81F                  
HOQUIAM        LGT RAIN  53  49  86 NE8       29.79F                  
ASTORIA, OR    LGT RAIN  53  51  93 E9        29.74R                  
$$
 
WAZ019-023-024-040-518-519-250400-
CASCADE MOUNTAINS AND COLUMBIA GORGE
  
CITY           SKY/WX    TMP DP  RH WIND       PRES   REMARKS
STAMPEDE PASS  NOT AVBL                                               
TROUTDALE, OR  CLOUDY    55  49  80 E20       29.76F                  
THE DALLES, OR CLOUDY    52  50  93 W3        29.91F                  
$$

WAZ026-027-041>044-520-521-250400-
EAST SLOPES
  
CITY           SKY/WX    TMP DP  RH WIND       PRES   REMARKS
OMAK           CLOUDY    46  39  76 NW3       30.02R                  
WENATCHEE      LGT RAIN  50  43  77 NW5       29.98F                  
ELLENSBURG     LGT RAIN  48  43  82 SW3       29.97S                  
YAKIMA         LGT RAIN  48  46  93 W6        29.97F                  
$$

WAZ028-034-035-250400-
COLUMBIA BASIN
  
CITY           SKY/WX    TMP DP  RH WIND       PRES   REMARKS
EPHRATA        LGT RAIN  51  46  83 N5        29.97S                  
MOSES LAKE     LGT RAIN  51  48  89 N7        29.97F                  
PASCO          CLOUDY    50  48  93 NW10      29.94F                  
HERMISTON, OR  CLOUDY    52  48  86 NW3       29.90F                  
$$

WAZ036>038-250400-
NORTHEAST WASHINGTON
  
CITY           SKY/WX    TMP DP  RH WIND       PRES   REMARKS
SPOKANE GEIGER CLOUDY    51  42  71 E7        29.99F                  
SPOKANE FELTS  CLOUDY    52  43  71 NE3       30.00F                  
FAIRCHILD AFB  CLOUDY    49  42  78 NE8       29.99F                  
COEURDALENE,ID CLOUDY    48  39  71 N10       30.00F                  
DEER PARK      CLOUDY    49  41  74 NE10      30.01F                  
$$

WAZ029>033-250400-
SOUTHEAST WASHINGTON
  
CITY           SKY/WX    TMP DP  RH WIND       PRES   REMARKS
PULLMAN        CLOUDY    49  45  86 E10       30.00F                  
LEWISTON, ID   CLOUDY    53  50  89 SE5       29.98S                  
WALLA WALLA    CLOUDY    52  50  93 S6        29.91F                  
PENDLETON, OR  MOCLDY    50  47  89 SE6       29.89F                  
$$